FW9628 Weather Reports


time (UTC)temp
C
wind
direction
speed
KPH
gust
KPH
rain 1hr
cm
rain 24hr
cm
rain mn
cm
humidity
%
barometer
mb
20260504044529 8 140 6.4 20.9 0.00 0.00 0.00 46 1015.6
20260504043037 9 140 12.9 24.1 0.00 0.00 0.00 43 1015.5
20260504041530 9 140 11.3 22.5 0.00 0.00 0.00 44 1015.3
20260504040028 10 140 14.5 27.4 0.00 0.00 0.00 42 1015.1
20260504034530 10 140 14.5 27.4 0.00 0.00 0.00 40 1014.8
20260504033031 10 140 11.3 27.4 0.00 0.00 0.00 40 1014.6
20260504031533 11 140 11.3 33.8 0.00 0.00 0.00 39 1014.4
20260504030028 11 140 12.9 27.4 0.00 0.00 0.00 39 1014.1
20260504024533 11 140 11.3 29.0 0.00 0.00 0.00 38 1013.9
20260504023031 12 140 16.1 32.2 0.00 0.00 0.00 39 1013.7
20260504021530 12 140 12.9 25.7 0.00 0.00 0.00 41 1013.6
20260504020032 12 140 12.9 24.1 0.00 0.00 0.00 43 1013.7
20260504014538 12 141 12.9 32.2 0.00 0.00 0.00 42 1013.5
20260504013036 12 140 17.7 35.4 0.00 0.00 0.00 40 1013.5
20260504011531 13 141 16.1 38.6 0.00 0.00 0.00 39 1013.3
20260504010030 13 140 11.3 25.7 0.00 0.00 0.00 41 1013.0
20260504004533 13 140 16.1 33.8 0.00 0.00 0.00 40 1012.9
20260504003028 13 140 16.1 30.6 0.00 0.00 0.00 40 1012.7
20260504001528 13 140 9.7 30.6 0.00 0.00 0.00 42 1012.5
20260504000031 13 140 16.1 32.2 0.00 0.00 0.00 41 1012.5
20260503234530 13 140 14.5 25.7 0.00 0.00 0.00 41 1012.4
20260503233033 13 140 14.5 29.0 0.00 0.00 0.00 39 1012.2
20260503231528 14 140 17.7 33.8 0.00 0.00 0.00 38 1012.1
20260503230030 14 140 14.5 33.8 0.00 0.00 0.00 39 1012.1
20260503224529 15 139 17.7 41.8 0.00 0.00 0.00 37 1011.9
20260503223028 15 140 20.9 37.0 0.00 0.00 0.00 37 1011.7
20260503221529 15 140 19.3 32.2 0.00 0.00 0.00 36 1011.6
20260503220041 15 140 20.9 38.6 0.00 0.00 0.00 36 1011.7
20260503214530 15 140 16.1 40.2 0.00 0.00 0.00 37 1011.6
20260503213030 15 139 20.9 41.8 0.00 0.00 0.00 37 1011.6
20260503211527 15 140 17.7 35.4 0.00 0.00 0.00 37 1011.6
20260503210027 15 140 17.7 35.4 0.00 0.00 0.00 37 1011.6
20260503204527 15 140 16.1 33.8 0.00 0.00 0.00 36 1011.5
20260503203044 15 140 16.1 37.0 0.00 0.00 0.00 38 1011.5
20260503201533 15 140 19.3 35.4 0.00 0.00 0.00 37 1011.5
20260503200027 15 141 19.3 38.6 0.00 0.00 0.00 37 1011.4
20260503194538 15 139 25.7 43.5 0.00 0.00 0.00 36 1011.4
20260503193032 15 139 17.7 40.2 0.00 0.00 0.00 35 1011.3
20260503191530 16 139 19.3 35.4 0.00 0.00 0.00 34 1011.1
20260503190038 16 139 20.9 41.8 0.00 0.00 0.00 35 1011.0
20260503184530 16 140 16.1 41.8 0.00 0.00 0.00 35 1011.2
20260503183031 16 140 14.5 35.4 0.00 0.00 0.00 36 1011.2
20260503181530 16 140 12.9 32.2 0.00 0.00 0.00 35 1011.0
20260503180033 16 140 16.1 35.4 0.00 0.00 0.00 34 1011.1
20260503174528 15 139 17.7 33.8 0.00 0.00 0.00 35 1011.2
20260503173031 16 139 11.3 30.6 0.00 0.00 0.00 38 1011.3
20260503171532 16 140 12.9 27.4 0.00 0.00 0.00 36 1011.2
20260503081536 13 139 9.7 16.1 0.00 0.00 0.00 37 1010.8